FW4369 Weather Reports


time (UTC)temp
C
wind
direction
speed
KPH
gust
KPH
rain 1hr
cm
rain 24hr
cm
rain mn
cm
humidity
%
barometer
mb
20260505025006 16 62 4.8 20.9 0.00 0.00 0.00 44 1006.6
20260505024506 16 57 4.8 20.9 0.00 0.00 0.00 45 1006.5
20260505024006 16 21 6.4 20.9 0.00 0.00 0.00 45 1006.5
20260505023506 16 5 4.8 20.9 0.00 0.00 0.00 45 1006.3
20260505023007 16 34 6.4 19.3 0.00 0.00 0.00 46 1006.2
20260505022507 16 30 9.7 27.4 0.00 0.00 0.00 46 1006.0
20260505022007 16 15 4.8 25.7 0.00 0.00 0.00 47 1005.8
20260505021507 16 27 14.5 27.4 0.00 0.00 0.00 48 1005.7
20260505021006 17 33 8.0 27.4 0.00 0.00 0.00 47 1005.6
20260505020507 17 67 8.0 25.7 0.00 0.00 0.00 47 1005.6
20260505020009 17 43 8.0 20.9 0.00 0.00 0.00 46 1005.5
20260505015506 18 35 14.5 19.3 0.00 0.00 0.00 44 1005.3
20260505015006 18 47 4.8 20.9 0.00 0.00 0.00 40 1005.8
20260505014007 18 15 14.5 22.5 0.00 0.00 0.00 42 1005.7
20260505013507 18 74 11.3 22.5 0.00 0.00 0.00 41 1005.4
20260505013007 19 360 4.8 16.1 0.00 0.00 0.00 40 1005.8
20260505012007 20 46 6.4 16.1 0.00 0.00 0.00 34 1005.9
20260505011506 20 52 3.2 12.9 0.00 0.00 0.00 33 1005.9
20260505011006 20 67 1.6 20.9 0.00 0.00 0.00 33 1005.6
20260505010507 20 34 4.8 24.1 0.00 0.00 0.00 33 1005.4
20260505010009 21 13 16.1 24.1 0.00 0.00 0.00 32 1005.5
20260505005506 21 18 6.4 22.5 0.00 0.00 0.00 32 1005.5
20260505005007 21 26 9.7 22.5 0.00 0.00 0.00 31 1005.0
20260505004507 21 360 8.0 22.5 0.00 0.00 0.00 31 1004.6
20260505003506 21 68 8.0 32.2 0.00 0.00 0.00 31 1003.8
20260505003006 21 49 14.5 32.2 0.00 0.00 0.00 30 1003.6
20260505002507 21 17 17.7 24.1 0.00 0.00 0.00 31 1003.5
20260505002007 22 42 14.5 29.0 0.00 0.00 0.00 31 1003.5
20260505001506 22 36 8.0 29.0 0.00 0.00 0.00 31 1003.3
20260505001006 22 355 8.0 33.8 0.00 0.00 0.00 31 1003.2
20260505000009 22 55 9.7 33.8 0.00 0.00 0.00 31 1003.1
20260504235507 23 47 6.4 32.2 0.00 0.00 0.00 31 1003.0
20260504235007 23 63 16.1 32.2 0.00 0.00 0.00 31 1002.9
20260504234506 23 67 16.1 45.1 0.00 0.00 0.00 32 1002.8
20260504234007 23 34 20.9 45.1 0.00 0.00 0.00 31 1002.6
20260504233506 23 18 16.1 32.2 0.00 0.00 0.00 32 1002.5
20260504233006 24 11 20.9 32.2 0.00 0.00 0.00 32 1002.4
20260504232506 25 20 14.5 29.0 0.00 0.00 0.00 32 1002.2
20260504232007 25 24 20.9 29.0 0.00 0.00 0.00 32 1002.2
20260504231006 25 101 6.4 33.8 0.00 0.00 0.00 32 1002.1
20260504230506 25 45 20.9 33.8 0.00 0.00 0.00 31 1002.0
20260504225505 25 69 14.5 32.2 0.00 0.00 0.00 31 1002.1
20260504225006 26 63 17.7 27.4 0.00 0.00 0.00 30 1002.1
20260504224505 26 34 16.1 25.7 0.00 0.00 0.00 30 1002.0
20260504224006 26 58 22.5 25.7 0.00 0.00 0.00 30 1001.9
20260504223507 26 70 12.9 32.2 0.00 0.00 0.00 29 1001.6
20260504222007 27 78 6.4 20.9 0.00 0.00 0.00 27 1001.8
20260504220506 28 58 1.6 12.9 0.00 0.00 0.00 18 1001.3
20260504220009 28 15 1.6 12.9 0.00 0.00 0.00 20 1001.5
20260504215507 28 102 1.6 9.7 0.00 0.00 0.00 17 1001.5
20260504215007 28 60 8.0 9.7 0.00 0.00 0.00 18 1001.6
20260504214506 28 65 6.4 14.5 0.00 0.00 0.00 19 1001.6
20260504214007 28 49 1.6 14.5 0.00 0.00 0.00 19 1001.7
20260504213507 29 68 4.8 12.9 0.00 0.00 0.00 18 1001.7
20260504212507 29 295 0.0 12.9 0.00 0.00 0.00 18 1001.6
20260504212007 29 55 4.8 12.9 0.00 0.00 0.00 17 1001.5
20260504211506 30 166 1.6 12.9 0.00 0.00 0.00 15 1001.6
20260504211006 30 58 6.4 12.9 0.00 0.00 0.00 15 1001.7
20260504210507 31 343 8.0 16.1 0.00 0.00 0.00 17 1001.7
20260504210008 30 55 4.8 16.1 0.00 0.00 0.00 17 1001.6
20260504205505 30 130 12.9 12.9 0.00 0.00 0.00 19 1001.6
20260504205006 30 222 1.6 11.3 0.00 0.00 0.00 16 1001.8
20260504204005 29 82 4.8 19.3 0.00 0.00 0.00 19 1002.0
20260504203506 30 89 6.4 19.3 0.00 0.00 0.00 17 1002.1
20260504202505 30 288 3.2 11.3 0.00 0.00 0.00 15 1002.1
20260504202005 31 80 6.4 14.5 0.00 0.00 0.00 16 1002.0
20260504201505 30 31 3.2 14.5 0.00 0.00 0.00 15 1002.2
20260504201005 30 307 6.4 16.1 0.00 0.00 0.00 16 1002.3
20260504200505 30 49 3.2 16.1 0.00 0.00 0.00 18 1002.3
20260504195505 29 305 12.9 16.1 0.00 0.00 0.00 17 1002.5
20260504195006 30 120 3.2 16.1 0.00 0.00 0.00 18 1002.6
20260504194505 30 143 12.9 12.9 0.00 0.00 0.00 18 1002.6
20260504193505 30 78 8.0 14.5 0.00 0.00 0.00 19 1002.8
20260504193005 29 220 6.4 14.5 0.00 0.00 0.00 19 1002.8
20260504192505 30 5 9.7 16.1 0.00 0.00 0.00 17 1002.8
20260504191006 29 51 4.8 12.9 0.00 0.00 0.00 19 1002.8
20260504190505 30 29 4.8 12.9 0.00 0.00 0.00 17 1002.9
20260504190008 30 81 1.6 9.7 0.00 0.00 0.00 20 1002.9
20260504185505 28 173 0.0 11.3 0.00 0.00 0.00 17 1002.9
20260504185006 30 108 9.7 14.5 0.00 0.00 0.00 17 1003.0
20260504184505 30 40 1.6 14.5 0.00 0.00 0.00 15 1003.1
20260504184005 29 27 3.2 14.5 0.00 0.00 0.00 17 1003.1
20260504182506 30 22 4.8 19.3 0.00 0.00 0.00 17 1003.1
20260504182005 30 21 12.9 19.3 0.00 0.00 0.00 16 1003.2
20260504181005 29 10 17.7 20.9 0.00 0.00 0.00 18 1003.2
20260504180505 28 69 1.6 17.7 0.00 0.00 0.00 22 1003.3
20260504180008 28 31 4.8 14.5 0.00 0.00 0.00 18 1003.2
20260504175005 28 253 6.4 14.5 0.00 0.00 0.00 19 1003.2
20260504174505 28 318 6.4 12.9 0.00 0.00 0.00 20 1003.3
20260504174006 28 18 4.8 16.1 0.00 0.00 0.00 20 1003.4
20260504173505 28 24 6.4 16.1 0.00 0.00 0.00 21 1003.5
20260504172505 28 79 6.4 16.1 0.00 0.00 0.00 20 1003.5
20260504172005 27 360 3.2 17.7 0.00 0.00 0.00 19 1003.5
20260504171505 28 350 6.4 22.5 0.00 0.00 0.00 21 1003.6
20260504171005 27 54 6.4 20.9 0.00 0.00 0.00 23 1003.6
20260504170505 27 28 6.4 20.9 0.00 0.00 0.00 22 1003.5
20260504141006 18 5 8.0 19.3 0.00 0.00 0.00 47 1004.9
20260504140506 17 355 14.5 22.5 0.00 0.00 0.00 47 1004.9
20260504130505 12 10 11.3 19.3 0.00 0.00 0.00 61 1004.5
20260504100505 5 5 1.6 4.8 0.00 0.00 0.00 80 1003.6
20260504082005 8 49 0.0 0.0 0.00 0.00 0.00 69 1004.3
20260504081506 9 49 0.0 1.6 0.00 0.00 0.00 63 1004.4
20260504080505 10 49 0.0 3.2 0.00 0.00 0.00 61 1004.4
20260504050506 14 49 3.2 8.0 0.00 0.00 0.00 50 1006.5
20260504045507 15 60 3.2 9.7 0.00 0.00 0.00 49 1006.6
20260504045006 15 37 4.8 9.7 0.00 0.00 0.00 50 1006.7
20260504044506 15 61 4.8 9.7 0.00 0.00 0.00 48 1006.6
20260504044006 15 74 3.2 9.7 0.00 0.00 0.00 48 1006.6
20260504043506 15 47 4.8 9.7 0.00 0.00 0.00 49 1006.7
20260504043006 15 58 3.2 9.7 0.00 0.00 0.00 48 1006.9
20260504042506 15 38 1.6 9.7 0.00 0.00 0.00 48 1006.8
20260504041506 15 68 6.4 11.3 0.00 0.00 0.00 47 1006.8
20260504041006 15 70 4.8 9.7 0.00 0.00 0.00 48 1006.9
20260504040506 15 85 6.4 9.7 0.00 0.00 0.00 50 1007.0
20260504040009 15 65 1.6 4.8 0.00 0.00 0.00 49 1007.0
20260504035506 15 65 1.6 6.4 0.00 0.00 0.00 50 1007.1
20260504035007 15 50 3.2 6.4 0.00 0.00 0.00 50 1007.2
20260504034006 15 67 3.2 6.4 0.00 0.00 0.00 49 1007.2
20260504033506 15 68 1.6 4.8 0.00 0.00 0.00 49 1007.3
20260504033006 15 68 1.6 3.2 0.00 0.00 0.00 50 1007.3
20260504032506 15 68 3.2 4.8 0.00 0.00 0.00 49 1007.3
20260504032006 15 68 3.2 4.8 0.00 0.00 0.00 49 1007.4
20260504031506 15 68 1.6 4.8 0.00 0.00 0.00 48 1007.4
20260504031007 15 68 3.2 4.8 0.00 0.00 0.00 48 1007.4
20260504030506 15 69 3.2 4.8 0.00 0.00 0.00 49 1007.4
20260504030009 15 61 3.2 4.8 0.00 0.00 0.00 47 1007.5